2023/08/03 00:00:00, 0.1,25.8
2023/08/03 00:10:00, 0.1,25.2
2023/08/03 00:20:00, 0.1,24.9
2023/08/03 00:30:00, 0.1,25.3
2023/08/03 00:40:00, 0.1,24.9
2023/08/03 00:50:00, 0.0,24.5
2023/08/03 01:00:00, 0.0,24.3
2023/08/03 01:10:00, 0.1,24.0
2023/08/03 01:20:00, 0.0,24.0
2023/08/03 01:30:00, 0.0,23.9
2023/08/03 01:40:00, 0.1,23.7
2023/08/03 01:50:00, 0.1,23.6
2023/08/03 02:00:00, 0.1,23.6
2023/08/03 02:10:00, 0.1,23.6
2023/08/03 02:20:00, 0.1,23.5
2023/08/03 02:30:00, 0.5,23.6
2023/08/03 02:40:00, 4.9,23.6
2023/08/03 02:50:00, 0.3,23.2
2023/08/03 03:00:00, 0.1,23.3
2023/08/03 03:10:00, 0.2,22.9
2023/08/03 03:20:00, 0.2,23.3
2023/08/03 03:30:00, 0.2,22.7
2023/08/03 03:40:00, 0.2,22.9
2023/08/03 03:50:00, 0.2,23.0
2023/08/03 04:00:00, 0.2,22.9
2023/08/03 04:10:00, 0.2,23.0
2023/08/03 04:20:00, 1.7,23.1
2023/08/03 04:30:00, 7.1,22.7
2023/08/03 04:40:00, 7.9,22.9
2023/08/03 04:50:00, 8.1,22.8
2023/08/03 05:00:00, 8.0,22.8
2023/08/03 05:10:00, 7.8,23.1
2023/08/03 05:20:00,---,23.0
2023/08/03 05:30:00, 0.2,23.1
2023/08/03 05:40:00, 0.2,23.0
2023/08/03 05:50:00, 0.2,23.2
2023/08/03 06:00:00, 0.4,23.5
2023/08/03 06:10:00, 8.2,24.4
2023/08/03 06:20:00, 2.4,26.2
2023/08/03 06:30:00, 6.3,25.6
2023/08/03 06:40:00, 7.1,25.8
2023/08/03 06:50:00, 8.4,26.3
2023/08/03 07:00:00, 8.7,26.8
2023/08/03 07:10:00, 8.8,27.0
2023/08/03 07:20:00, 8.4,27.6
2023/08/03 07:30:00, 8.4,28.0
2023/08/03 07:40:00, 8.2,28.6
2023/08/03 07:50:00, 7.4,29.7
2023/08/03 08:00:00, 7.3,30.5
2023/08/03 08:10:00, 7.6,30.8
2023/08/03 08:20:00, 7.7,31.2
2023/08/03 08:30:00, 7.9,31.6
2023/08/03 08:40:00, 7.8,32.1
2023/08/03 08:50:00, 6.3,31.6
2023/08/03 09:00:00, 8.6,31.2
2023/08/03 09:10:00, 6.1,31.5
2023/08/03 09:20:00, 9.1,31.7
2023/08/03 09:30:00,10.2,32.1
2023/08/03 09:40:00,10.4,32.9
2023/08/03 09:50:00,10.6,33.3
2023/08/03 10:00:00,10.5,32.8
2023/08/03 10:10:00,10.2,33.3
2023/08/03 10:20:00, 8.6,33.9
2023/08/03 10:30:00, 8.4,34.1
2023/08/03 10:40:00, 9.4,33.9
2023/08/03 10:50:00, 9.7,34.4
2023/08/03 11:00:00,10.4,34.8
2023/08/03 11:10:00,10.4,34.9
2023/08/03 11:20:00,10.4,35.6
2023/08/03 11:30:00,10.6,35.9
2023/08/03 11:40:00,10.4,36.0
2023/08/03 11:50:00,10.3,36.7
2023/08/03 12:00:00,10.4,37.0
2023/08/03 12:10:00,10.4,36.9
2023/08/03 12:20:00,10.5,37.4
2023/08/03 12:30:00,10.3,37.6
2023/08/03 12:40:00,10.2,38.1
2023/08/03 12:50:00, 8.2,36.9
2023/08/03 13:00:00, 7.4,37.5
2023/08/03 13:10:00, 8.3,36.3
2023/08/03 13:20:00, 7.3,37.5
2023/08/03 13:30:00, 3.8,37.5
2023/08/03 13:40:00, 6.8,37.3
2023/08/03 13:50:00, 9.3,38.2
2023/08/03 14:00:00, 9.5,38.4
2023/08/03 14:10:00, 9.3,38.7
2023/08/03 14:20:00, 9.2,37.2
2023/08/03 14:30:00, 7.5,37.5
2023/08/03 14:40:00, 6.3,38.2
2023/08/03 14:50:00, 7.1,36.7
2023/08/03 15:00:00, 9.0,37.1
2023/08/03 15:10:00, 7.0,35.6
2023/08/03 15:20:00, 7.3,36.4
2023/08/03 15:30:00, 7.4,36.6
2023/08/03 15:40:00, 7.1,36.6
2023/08/03 15:50:00, 4.8,36.6
2023/08/03 16:00:00, 3.4,36.7
2023/08/03 16:10:00, 5.3,34.9
2023/08/03 16:20:00, 5.7,33.7
2023/08/03 16:30:00, 5.0,33.6
2023/08/03 16:40:00, 3.2,32.6
2023/08/03 16:50:00, 0.6,32.1
2023/08/03 17:00:00, 3.4,32.1
2023/08/03 17:10:00, 5.2,31.4
2023/08/03 17:20:00, 4.5,30.6
2023/08/03 17:30:00, 3.9,30.7
2023/08/03 17:40:00, 3.4,30.4
2023/08/03 17:50:00, 3.1,30.0
2023/08/03 18:00:00, 2.7,29.7
2023/08/03 18:10:00, 2.4,29.6
2023/08/03 18:20:00, 2.3,29.1
2023/08/03 18:30:00, 2.4,28.7
2023/08/03 18:40:00, 2.1,28.6
2023/08/03 18:50:00, 1.5,28.3
2023/08/03 19:00:00, 0.5,28.0
2023/08/03 19:10:00, 0.2,27.9
2023/08/03 19:20:00, 0.1,27.4
2023/08/03 19:30:00, 0.1,27.3
2023/08/03 19:40:00, 0.1,27.0
2023/08/03 19:50:00, 0.2,26.5
2023/08/03 20:00:00, 0.1,26.2
2023/08/03 20:10:00, 0.1,26.4
2023/08/03 20:20:00, 0.1,26.3
2023/08/03 20:30:00, 0.1,26.3
2023/08/03 20:40:00, 0.1,25.8
2023/08/03 20:50:00, 1.5,25.6
2023/08/03 21:00:00, 4.2,25.3
2023/08/03 21:10:00, 4.8,25.3
2023/08/03 21:20:00, 0.9,25.2
2023/08/03 21:30:00, 0.3,25.1
2023/08/03 21:40:00, 0.1,25.1
2023/08/03 21:50:00, 0.1,25.0
2023/08/03 22:00:00, 0.1,24.7
2023/08/03 22:10:00, 0.1,24.8
2023/08/03 22:20:00, 0.1,24.6
2023/08/03 22:30:00, 0.1,24.7
2023/08/03 22:40:00, 0.1,24.7
2023/08/03 22:50:00, 0.1,24.7
2023/08/03 23:00:00, 0.1,24.6
2023/08/03 23:10:00, 0.1,24.1
2023/08/03 23:20:00, 0.3,24.2
2023/08/03 23:30:00, 0.1,23.9
2023/08/03 23:40:00, 0.1,23.9
2023/08/03 23:50:00, 2.2,24.0
